To NAV CANADA Home Page Login to a new session Search on AWWS site Feedback and Comments Disclaimer Vers la page française équivalente Tips FAQ What's new on the site To the Forecasts and Observations / NOTAM section To "File a Flight Plan" website Publications and other links Update of the User's profile FIC Telephone Numbers My Weather Data Folder Route Weather Data Regional Weather Data Local Weather Data To the Forecasts and Observations / NOTAM section
Request Generated 08/01/2015 at 16:10:21 UTC . Weather information available at that time is displayed.

METAR/TAF

UMIUJAQ/QC    

METAR CYMU 011600Z 20013KT 1 1/4SM -DZ BR OVC003 06/05 A2938 RMK FG3ST5 VIS W 3 SLP955=
METAR CYMU 011500Z 21015KT 1SM -DZ BR OVC002 05/05 A2938 RMK FG3ST5 SLP952=
METAR CYMU 011400Z 20015KT 4SM -DZ BR FEW004 OVC006 05/05 A2936 RMK SF1SC7 SLP947=

CYMU - No TAF is issued for this station

Your time UTC time
Weather data provided by Environment Canada and NAV CANADA